Weather in Matcherka

Russia / Penza Oblast     53°25′56″N   42°42′50″E
temp.,
°C
wind,
m/s
gust,
m/s
humid.,
%
clouds,
%
prec.,
mm/h
press.,
hPa
HPBL,
m
28 february, sun
sun2800:00−13nnw369697 0.0 1012120
03:00−15nnw349671 0.0 101353
06:00−15nw339752 0.0 101457
09:00−13nw369667 0.1 1015250
12:00−10nnw359097 0.0 1015504
15:00−8nnw358998 0.1 1016611
18:00−11nnw3394100 0.0 101733
21:00−13nnw239596 0.1 102020
1 march, mon
mon100:00−14n229672 0.0 102120
03:00−16nnw129636 0.0 102220
06:00−16nnw129718 0.0 102320
09:00−13nw129629 0.0 102551
12:00−9wsw239063 0.0 1025293
15:00−5sw359181 0.1 1024449
18:00−8sw459574 0.0 102285
21:00−4wsw5119583 0.1 1020509
2 march, tue
tue200:00−3wsw61295100 0.3 1017472
03:00−3wsw71496100 1.4 1013572
06:00−1wsw71497100 0.6 1009698
09:000w71398100 2.0 1006724
12:000wnw61299100 1.3 1005662
15:000nw51098100 2.0 1005682
18:00−2wnw4108898 0.4 1006205
21:00−3wnw5129399 0.5 1007402
3 march, wed
wed300:00−3nw5119496 0.1 1007516
03:00−4wnw5109596 0.2 1008432
06:00−5nw5129591 0.2 1009482
09:00−5nw7129191 0.4 1011707
12:00−4nw71188100 0.1 1012908
15:00−3nw71188100 0.3 10131056
18:00−5nw51288100 0.1 1014459
21:00−7nw4109195 0.1 1017201
4 march, thu
thu400:00−9wnw369536 0.0 1018120
03:00−9w349748 0.0 101855
06:00−8wsw489590 0.1 1018146
09:00−6wsw6119354 0.1 1016342
12:00−2wsw7138896 0.0 1014666
15:00−1wsw7148698 0.0 1012731
18:00−2sw71685100 0.0 1010589
21:00−2sw8178668 0.0 1009627